Gaylord, MI

2:54 AM EDT on June 26, 2017 (GMT -0400)
Otsego County

Weather History for KGLR - February, 2013

Change the Weather History Date:

Sunday, February 10, 2013

  Actual Average Record
Temperature  
Mean Temperature 24 °F -  
Max Temperature 34 °F 26 °F 53 °F (2009)
Min Temperature 14 °F 9 °F -17 °F (1962)
Degree Days  
Heating Degree Days 42    
Moisture  
Dew Point 22 °F    
Average Humidity 82    
Maximum Humidity 93    
Minimum Humidity 64    
Precipitation  
Precipitation 0.10 in - - ()
Sea Level Pressure  
Sea Level Pressure 29.88 in    
Wind  
Wind Speed 10 mph (SSE)    
Max Wind Speed 18 mph    
Max Gust Speed 25 mph    
Visibility 8 miles    
Events Rain , Snow    
Averages and records for this station are not official NWS values.
T = Trace of Precipitation, MM = Missing Value Source: NWS Daily Summary

Daily Weather History Graph

Daily Weather History Graph

Search for Another Location

Airport or City:

Trip Planner

Search our weather history database for the weather conditions in past years. The results will help you decide how hot, cold, wet, or windy it might be!

Date:

Astronomy

Feb. 10, 2013 Rise Set
Actual Time 7:46 AM EST 6:00 PM EST
Civil Twilight 7:16 AM EST 6:30 PM EST
Nautical Twilight 6:41 AM EST 7:05 PM EST
Astronomical Twilight 6:07 AM EST 7:39 PM EST
Moon 7:32 AM EST (2/10) 6:54 PM EST (2/10)
Length of Visible Light 11h 14m
Length of Day
10h 13m
New Moon, 0% of the Moon is Illuminated
Feb 10
New Moon
Feb 17
First Quarter
Feb 25
Full
Mar 4
Last Quarter
Mar 11
New

Hourly Weather History & Observations

Time (EST) Temp. Windchill Dew Point Humidity Pressure Visibility Wind Dir Wind Speed Gust Speed Precip Events Conditions
12:53 AM 17.1 °F 5.0 °F 10.9 °F 77% 30.22 in 10.0 mi South 10.4 mph - N/A   Overcast
1:53 AM 18.0 °F 8.7 °F 12.0 °F 78% 30.20 in 10.0 mi South 6.9 mph - N/A   Overcast
2:53 AM 18.0 °F 6.9 °F 12.0 °F 78% 30.18 in 10.0 mi SSW 9.2 mph - N/A   Clear
3:53 AM 16.0 °F 4.4 °F 12.9 °F 88% 30.17 in 10.0 mi SSW 9.2 mph - N/A   Clear
4:53 AM 16.0 °F 4.4 °F 12.9 °F 88% 30.17 in 9.0 mi South 9.2 mph - N/A   Scattered Clouds
5:53 AM 15.1 °F 4.2 °F 12.9 °F 91% 30.17 in 8.0 mi South 8.1 mph - N/A   Mostly Cloudy
6:53 AM 14.0 °F 3.9 °F 12.0 °F 92% 30.17 in 6.0 mi South 6.9 mph - N/A   Partly Cloudy
7:53 AM 14.0 °F - 12.0 °F 92% 30.17 in 6.0 mi Calm Calm - N/A   Clear
8:53 AM 15.1 °F 6.4 °F 12.9 °F 91% 30.14 in 7.0 mi SE 5.8 mph - N/A   Clear
9:53 AM 18.0 °F 7.7 °F 15.1 °F 88% 30.11 in 9.0 mi SE 8.1 mph - N/A   Clear
10:53 AM 23.0 °F 13.1 °F 17.1 °F 78% 30.06 in 10.0 mi SSE 9.2 mph - N/A   Clear
11:53 AM 27.0 °F 18.7 °F 19.0 °F 72% 30.05 in 10.0 mi SSE 8.1 mph - N/A   Mostly Cloudy
12:53 PM 30.0 °F 21.1 °F 19.9 °F 66% 30.00 in 10.0 mi SE 10.4 mph - N/A   Clear
1:53 PM 33.1 °F 23.9 °F 23.0 °F 66% 29.96 in 10.0 mi SSE 12.7 mph 21.9 mph 0.00 in   Mostly Cloudy
2:33 PM 32.0 °F 24.8 °F 23.0 °F 69% 29.87 in 10.0 mi SE 8.1 mph - N/A   Overcast
2:53 PM 32.0 °F 24.8 °F 21.9 °F 66% 29.92 in 10.0 mi ESE 8.1 mph - N/A   Overcast
3:53 PM 30.9 °F 23.5 °F 21.9 °F 69% 29.89 in 10.0 mi ESE 8.1 mph - N/A   Overcast
4:38 PM 32.0 °F 24.2 °F 21.2 °F 64% 29.78 in 10.0 mi ESE 9.2 mph - N/A   Overcast
4:53 PM 33.1 °F 24.9 °F 21.9 °F 64% 29.83 in 10.0 mi SE 10.4 mph - N/A   Overcast
5:43 PM 32.0 °F 21.6 °F 24.8 °F 75% 29.74 in 9.0 mi SE 15.0 mph - 0.01 in Rain Light Freezing Rain
5:53 PM 30.9 °F 21.2 °F 25.0 °F 79% 29.80 in 8.0 mi SE 12.7 mph 20.7 mph 0.01 in Rain Light Freezing Rain
6:21 PM 30.2 °F 18.9 °F 24.8 °F 80% 29.71 in 8.0 mi SE 16.1 mph 23.0 mph 0.00 in Rain Light Freezing Rain
6:36 PM 30.2 °F 18.9 °F 24.8 °F 80% 29.70 in 10.0 mi ESE 16.1 mph 20.7 mph 0.00 in   Overcast
6:53 PM 30.0 °F 18.3 °F 25.0 °F 82% 29.75 in 9.0 mi SE 17.3 mph 25.3 mph 0.00 in   Overcast
7:08 PM 30.2 °F 18.1 °F 26.6 °F 86% 29.69 in 7.0 mi SE 18.4 mph 24.2 mph 0.01 in Rain Light Freezing Rain
7:53 PM 30.0 °F 19.5 °F 27.0 °F 88% 29.73 in 6.0 mi SE 13.8 mph 21.9 mph 0.03 in Rain Light Freezing Rain
8:00 PM 30.2 °F 19.8 °F 28.4 °F 93% 29.66 in 4.0 mi SE 13.8 mph - 0.00 in Rain Light Freezing Rain
8:39 PM 30.2 °F 19.8 °F 28.4 °F 93% 29.63 in 4.0 mi SE 13.8 mph 25.3 mph 0.01 in   Overcast
8:53 PM 32.0 °F 21.2 °F 30.0 °F 92% 29.68 in 3.0 mi SSE 16.1 mph - 0.02 in Rain Light Freezing Rain
9:53 PM 33.1 °F 22.2 °F 30.9 °F 92% 29.64 in 4.0 mi SSE 17.3 mph - 0.04 in Rain Light Freezing Rain
10:02 PM 33.8 °F 24.3 °F 30.2 °F 87% 29.58 in 4.0 mi SSE 13.8 mph 24.2 mph 0.02 in Rain Light Freezing Rain
10:09 PM 33.8 °F 23.5 °F 30.2 °F 87% 29.58 in 5.0 mi SSE 16.1 mph 21.9 mph 0.02 in Rain Light Freezing Rain
10:24 PM 33.8 °F 23.9 °F 32.0 °F 93% 29.57 in 3.0 mi SSE 15.0 mph 25.3 mph 0.03 in Snow Light Snow
11:53 PM 34.0 °F 24.2 °F 32.0 °F 92% 29.57 in 10.0 mi South 15.0 mph - 0.00 in   Overcast